Regional Weather Roundup
Issued by NWS

Home | Current Version | Previous Version | Graphics & Text | Print | Product List | Glossary On
Versions: 1 2 3 4 5 6 7 8 9 10 11 12 13 14 15 16 17 18 19 20 21 22 23 24 25 26 27 28 29 30 31 32 33 34 35 36 37 38 39 40 41 42 43 44 45 46 47 48 49 50
000
ASUS43 KMPX 250510
RWRMN
WEATHER ROUNDUP FOR MINNESOTA
NATIONAL WEATHER SERVICE TWIN CITIES/CHANHASSEN MN
1200 AM CDT MON MAY 25 2015


NOTE: "FAIR" INDICATES FEW OR NO CLOUDS BELOW 12,000 FEET WITH NO
SIGNIFICANT WEATHER AND/OR OBSTRUCTIONS TO VISIBILITY. N/A MEANS
CURRENT SKY AND/OR WEATHER CONDITIONS ARE NOT AVAILABLE.

MNZ060>063-068>070-250600-
   Twin Cities Metro

CITY           SKY/WX    TMP DP  RH WIND       PRES   REMARKS
TWIN CITIES    LGT RAIN  58  57  97 E9        29.78F FOG
ST PAUL        LGT RAIN  58  57  97 E6        29.79F FOG
CRYSTAL        LGT RAIN  59  57  93 E7        29.77F FOG
BLAINE         DRIZZLE   59  59 100 E9        29.79F
LAKEVILLE      CLOUDY    55  55 100 E8        29.77F FOG
EDEN PRAIRIE   LGT RAIN  58  57  97 E9        29.76F FOG
SOUTH ST PAUL  DRIZZLE   58  57  96 E7        29.78F
LAKE ELMO      DRIZZLE   57  57 100 E7        29.80F
$$
MNZ001>005-007-008-013>017-022>024-027-028-250600-
   Northwest Minnesota

CITY           SKY/WX    TMP DP  RH WIND       PRES   REMARKS
BEMIDJI        CLOUDY    58  51  76 E3        29.88F
HALLOCK        MOCLDY    57  48  72 SE5       29.87S
ROSEAU         CLOUDY    59  52  77 NW3       29.88F
WARROAD        CLOUDY    57  52  82 NW5       29.88F
THIEF RVR FALL CLOUDY    63  48  59 CALM      29.88S
CROOKSTON      CLOUDY    63  50  63 E5        29.87F
FOSSTON        CLOUDY    55  45  67 CALM      29.88F
DETROIT LAKES  RAIN      59  54  82 CALM      29.88F
MOORHEAD       CLOUDY    63  54  72 SE5       29.86F
PARK RAPIDS    CLOUDY    59  53  80 NE6       29.87F
MAHNOMEN       CLOUDY    59  52  77 E5        29.87S
$$
MNZ006-009>011-018-025>026-250600-
   North Central Minnesota

CITY           SKY/WX    TMP DP  RH WIND       PRES   REMARKS
BAUDETTE       CLOUDY    57  52  83 S3        29.88F
FLAG ISLAND    MOCLDY    61  48  63 CALM      29.88S
INTL FALLS     CLOUDY    56  50  80 CALM      29.88F
WASKISH        CLOUDY    57  55  94 CALM      29.89S
BIG FORK       CLOUDY    57  52  82 CALM      29.89F
LONGVILLE      DRIZZLE   57  54  88 CALM      29.88F
GRAND RAPIDS   CLOUDY    57  52  82 CALM      29.90F
CRANE LAKE     CLOUDY    54  48  82 CALM      29.91F
ORR            CLOUDY    57  48  72 CALM      29.88F
COOK           CLOUDY    57  54  88 CALM      29.90F
WALKER         LGT RAIN  57  54  91 CALM      29.89S
$$
MNZ012-019>021-037-250600-
   Northeast Minnesota

CITY           SKY/WX    TMP DP  RH WIND       PRES   REMARKS
DULUTH         LGT RAIN  58  55  90 E9        29.90F
ELY            CLOUDY    61  46  59 S3        29.91F
HIBBING        CLOUDY    56  50  80 CALM      29.90F
EVELETH        CLOUDY    57  52  82 CALM      29.92F
DULUTH HARBOR  LGT RAIN  52  50  93 NE8       29.90S
TWO HARBORS    DRIZZLE   61  55  82 CALM      29.89F
GRAND MARAIS     N/A     53  43  68 CALM      29.91F
G MARAIS ARPRT CLOUDY    54  37  54 CALM      29.95F
$$
MNZ029>031-032-039>041-046>048-054>057-064-250600-
   West Central Minnesota

CITY           SKY/WX    TMP DP  RH WIND       PRES   REMARKS
FERGUS FALLS   DRIZZLE   57  57 100 E8        29.84F
WHEATON        CLOUDY    55  55 100 NE6       29.83F
MORRIS         LGT RAIN  57  57 100 NE8       29.80F
ALEXANDRIA     LGT RAIN  57  55  93 NE10      29.83F
ELBOW LAKE     RAIN      57  56  98 E9        29.82F
WADENA         LGT RAIN  55  54  94 NE6       29.85F
GLENWOOD       CLOUDY    57  55  94 NE10      29.82F
APPLETON       DRIZZLE   59  57  94 NE8       29.79F
BENSON         LGT RAIN  57  55  94 E5        29.79F
ORTONVILLE     CLOUDY    57  55  94 NE8       29.79F
MADISON        CLOUDY    57  55  94 NE9       29.78F
WILLMAR        DRIZZLE   59  57  94 E7        29.79F
$$
MNZ033>034-036-042>043-049>051-058-059-250600-
   Central Minnesota

CITY           SKY/WX    TMP DP  RH WIND       PRES   REMARKS
ST CLOUD       LGT RAIN  57  57 100 E6        29.80F FOG
SAUK CENTRE    LGT RAIN  56  56  97 NE7       29.81F
PAYNESVILLE    DRIZZLE   55  55 100 NE7       29.80F
AITKIN         RAIN      57  52  82 NE5       29.85F
PINE RIVER     LGT RAIN  57  54  88 NE5       29.91F
BRAINERD       LGT RAIN  57  56  96 NE7       29.85F FOG
STAPLES        RAIN      55  55 100 NE5       29.85F
LONG PRAIRIE   RAIN      55  54  94 N7        29.83F
LITTLE FALLS   RAIN      55  54  94 NE6       29.82F
LITCHFIELD     CLOUDY    57  57 100 E7        29.79F
BUFFALO        DRIZZLE   57  55  93 NE10      29.79F
MAPLE LAKE     DRIZZLE   58  57  97 E10       29.80F
$$
MNZ037-044-045-052-053-250600-
   East Central Minnesota

CITY           SKY/WX    TMP DP  RH WIND       PRES   REMARKS
PRINCETON      DRIZZLE   59  57  94 E7        29.81F
MORA           RAIN      55  54  94 CALM      29.85F
CAMBRIDGE      DRIZZLE   61  52  72 E6        29.79F
RUSH CITY      CLOUDY    58  56  95 E3        29.83F
MOOSE LAKE     LGT RAIN  57  55  94 NE3       29.85F
HINCKLEY       RAIN      57  57 100 E6        29.84F
CLOQUET        LGT RAIN  57  55  94 E6        29.89S
MCGREGOR       CLOUDY    55  55 100 NE3       29.88F
$$
MNZ071>073-080-081-089-090-097-098-250600-
   Southwest Minnesota

CITY           SKY/WX    TMP DP  RH WIND       PRES   REMARKS
MONTEVIDEO     DRIZZLE   57  57 100 E8        29.79F
GRANITE FALLS  DRIZZLE   58  57  97 NE9       29.78F
CANBY          LGT RAIN  58  56  96 NE7       29.79F
MARSHALL       CLOUDY    57  54  88 NE9       29.76F
REDWOOD FALLS  LGT RAIN  58  57  97 VRB5      29.76F FOG
OLIVIA         CLOUDY    55  54  94 NE8       29.76F FOG
PIPESTONE      CLOUDY    57  57 100 NE2       29.77S
WINDOM         RAIN      59  57  94 CALM      29.75F VSB 3/4
WORTHINGTON    CLOUDY    59  55  88 NE3       29.75F
JACKSON        DRZL/FOG  59  59 100 CALM      29.75F VSB 3/4
TRACY          DRIZZLE   58  58  98 NE6       29.77S
SLAYTON        DRIZZLE   57  57 100 CALM      29.77F
$$
MNZ065>067-074>077-082>085-091>093-250600-
   South Central Minnesota

CITY           SKY/WX    TMP DP  RH WIND       PRES   REMARKS
MANKATO        CLOUDY    59  57  94 E6        29.74F
NEW ULM        RAIN      57  57 100 E5        29.74F
ST JAMES       DRIZZLE   61  61 100 NE3       29.75F
FAIRMONT       CLOUDY    61  57  88 S6        29.73F
GLENCOE        DRIZZLE   59  58  99 NE7       29.76F
FARIBAULT      CLOUDY    61  59  94 E8        29.75F FOG
OWATONNA       LGT RAIN  61  59  94 SE10      29.75F
WASECA         DRIZZLE   59  57  94 SE8       29.75F
ALBERT LEA     CLOUDY    63  63 100 SE8       29.75F FOG
$$
MNZ078>079-086>088-094>096-250600-
   Southeast Minnesota

CITY           SKY/WX    TMP DP  RH WIND       PRES   REMARKS
ROCHESTER      CLOUDY    59  58  96 SE10      29.79F FOG
RED WING       CLOUDY    57  57 100 E7        29.77F FOG
STANTON        CLOUDY    60  58  92 E7G16     29.75F FOG
DODGE CENTER   CLOUDY    61  59  94 SE12      29.77F FOG
WINONA         RAIN      59  57  94 SE8       29.79F
AUSTIN         CLOUDY    61  59  94 SE9       29.76S
PRESTON        DRIZZLE   58  57  97 CALM      29.80S
$$
ABBREVIATIONS USED IN REMARKS
   TC - TEMPERATURES IN CELSIUS
  WCI - WIND CHILL INDEX
   HX - HEAT INDEX
  VSB - VISIBILITY
$$



USA.gov is the U.S. government's official web portal to all federal, state and local government web resources and services.